This is the latest recevied weather packets stored in our database for station/object DG6YGE-6. If no packets are shown the sender has not sent any weather packets the latest 10 day(s).
| Time | Temp. | Humidity | Pressure | Rain* | Wind** | Luminosity | Snow |
|---|---|---|---|---|---|---|---|
| 1777148353 | 8.89° C | 75% | 1018.4 hPa | 0 mm | - | 0 W/m² | - |
| 1777147752 | 9.44° C | 74% | 1018.2 hPa | 0 mm | - | 0 W/m² | - |
| 1777147152 | 9.44° C | 73% | 1018 hPa | 0 mm | - | 0 W/m² | - |
| 1777146552 | 10° C | 73% | 1017.8 hPa | 0 mm | - | 0 W/m² | - |
| 1777145952 | 10.56° C | 72% | 1017.8 hPa | 0 mm | - | 0 W/m² | - |
| 1777145352 | 10.56° C | 71% | 1017.7 hPa | 0 mm | - | 0 W/m² | - |
| 1777144752 | 11.11° C | 70% | 1017.4 hPa | 0 mm | - | 0 W/m² | - |
| 1777144152 | 11.67° C | 69% | 1017.2 hPa | 0 mm | - | 0 W/m² | - |
| 1777143552 | 12.22° C | 68% | 1017 hPa | 0 mm | - | 0 W/m² | - |
| 1777142952 | 12.78° C | 67% | 1016.8 hPa | 0 mm | - | 3 W/m² | - |
| 1777142352 | 13.33° C | 64% | 1016.6 hPa | 0 mm | - | 8 W/m² | - |
| 1777141752 | 13.89° C | 61% | 1016.6 hPa | 0 mm | - | 13 W/m² | - |
| 1777141152 | 14.44° C | 54% | 1016.4 hPa | 0 mm | - | 20 W/m² | - |
| 1777140552 | 15° C | 52% | 1016.3 hPa | 0 mm | - | 29 W/m² | - |
| 1777139952 | 15.56° C | 53% | 1016.3 hPa | 0 mm | - | 44 W/m² | - |
| 1777139352 | 15.56° C | 51% | 1016.1 hPa | 0 mm | - | 64 W/m² | - |
| 1777138752 | 16.11° C | 50% | 1016.1 hPa | 0 mm | - | 103 W/m² | - |
| 1777138152 | 16.11° C | 48% | 1016.2 hPa | 0 mm | - | 74 W/m² | - |
| 1777137552 | 16.67° C | 46% | 1016 hPa | 0 mm | - | 120 W/m² | - |
| 1777136952 | 16.67° C | 47% | 1016.2 hPa | 0 mm | - | 138 W/m² | - |
| 1777136352 | 16.67° C | 47% | 1016.2 hPa | 0 mm | - | 162 W/m² | - |
| 1777135752 | 16.67° C | 47% | 1016 hPa | 0 mm | - | 150 W/m² | - |
| 1777135152 | 16.67° C | 46% | 1015.9 hPa | 0 mm | - | 187 W/m² | - |
| 1777134552 | 16.67° C | 47% | 1016 hPa | 0 mm | - | 186 W/m² | - |
| 1777133952 | 16.67° C | 46% | 1016 hPa | 0 mm | - | 172 W/m² | - |
* Rain latest hour (hover to see other rain measurements)
** Current wind speed in m/s (hover to see current wind gust speed)